Location: Eferding
(48.3167°N, 14.0167°E)
Time: 21:12:54
(UTC+00:00)

ATLAS 3B R/B - Pass Details

Date: 12 November 2019
Orbit: 1030 x 1165 km, 63.8° (Epoch: 02 December)

Event Time Altitude Azimuth Distance (km) Brightness Sun altitude
Rises 17:45:35 0° 298° (WNW) 3,791 6.6 -22.6°
Reaches altitude 10° 17:48:58 10° 314° (NW) 2,835 5.5 -23.2°
Maximum altitude 17:53:52 21° 2° (N) 2,140 4.2 -24.0°
Enters shadow 17:55:53 19° 26° (NNE) 2,277 4.2 -24.4°
